DELTA 1 R/B, 50

Orbit data source: Space-Track

DELTA 1 R/B, 50 is space debris in LEO originally from a launch on Fri, 12 Aug 1960 UTC launched from the Air Force Eastern Test Range (AFETR). Debris objects in space refer to the collection of defunct objects orbiting the Earth. Examples of debris include non-operational satellites, rocket bodies, and fragments generated from explosions, collisions, or faulty payload assembly.

Loading next visibility...
Identifier
50, 1960-009B
Orbit
LEO
Country
Flag of USUS
Related business
Manufacturer
ABL
Mission
Spacecraft
Bus & Motor
ALTAIR, Unknown motor
Mass
24 kg wet, 24 kg dry
Launch date (UTC)
1960-08-12 (66 years ago)
Launch vehicle
Unknown
Launch site
Air Force Eastern Test Range (AFETR)
Object type
Payload
Rocket body
Debris
Shape & HBR
Unknown
Radar Cross Section
Medium (>0.1 m² and <1 m²)

Expand to show TLE details & history
Last TLE update: 21 hours ago

TLE from 21 hours ago
0 DELTA 1 R/B
1 00050U 60009B   26140.60185772 -.00000011  00000-0  69211-3 0  9994
2 00050  47.2313 247.3508 0113549 292.4325  66.4471 12.20164831934334
Epoch: 2026-05-20T14:26Z
TLE epoch observation values (Epoch: 2026-05-20T14:26:40.507Z)
Latitude
0.00003°
Longitude
152.42299°
Altitude
1,556.747 km
Speed
7.106 km/s
True Right ascension
16h 29m 24s
True Declination
0° 00' 00"
Sunlit
Object was in full shadow at epoch
Visualization orbit readout
Latitude
Unknown
Longitude
Unknown
Altitude
Unknown
Speed
Unknown
Apparent Right ascension
Unknown
Apparent Declination
Unknown
Sunlit
N/A
Visualization observer readout
Local Sidereal Time
20:27:48
Azimuth
Unknown
Elevation
Unknown
Doppler factor
Unknown
Orbital elements
Apogee altitude
1,683.398 km
Perigee altitude
1,502.378 km
Semi-major axis
7,971.025 km
Eccentricity
0.01135
Inclination
47.2313°
RAAN
247.3508°
Arg. of periapsis
292.4325°
True anomaly
67.64659°
Mean anomaly
66.4471°
Eccentric anomaly
67.04617°
Mean motion
3.0498 °/min
Orbital period
118.04 mins
BSTAR
0.00069211
Loading maneuver chart data...
Computing Atmospheric mass density...
Loading historical data...
Loading historical data...
Loading historical data...
Loading historical data...
Loading historical data...
Loading historical data...
Loading historical data...

Documentation

Showing up to 5 results
|